Starlink 36173

operational
NORAD ID: 67210 Int'l Des: 2025-304 Owner: SPXS Country: US Constellation: starlink
LEOCIRCULAR

Starlink 36173について

説明を読み込み中...

リアルタイム位置

3D地球を読み込み中...

次回通過

高度履歴

Altitude vs Time

uPlot chart will show altitude changes over time

軌道要素

1 67210C 25304U 25352.76715278 .00710530 00000+0 97271-3 0 3527
2 67210 69.9977 31.2726 0009279 253.3896 234.8384 16.05159523 19
Epoch: Dec 18, 2025 • Age: 71 hours

現在のステータス

高度 266.7 km
速度 7.75 km/s
衛星直下点 64.54°N, 86.33°E
打ち上げ日 Dec 17, 2025
運用期間 3 days
タイプ internet

技術仕様

分類 Payload
質量 575.00 kg
乾燥質量 530.00 kg
総質量 575.00 kg
長さ 0.30 m
直径 4.10 m
スパン 29.00 m
形状 Box + pan
製造者 SPXS
バスタイプ Starlink V2MO
フェーズステータス In Orbit
所有者/国 SPXS/US

大規模コンステレーション

Loading constellations...